Regional Weather Roundup
Issued by NWS

Home | Current Version | Previous Version | Text Only | Print | Product List | Glossary Off
Versions: 1 2 3 4 5 6 7 8 9 10 11 12 13 14 15 16 17 18 19 20 21 22 23 24 25 26 27 28 29 30 31 32 33 34 35 36 37 38 39 40 41 42 43 44 45 46 47 48 49 50

000
ASUS43 KMKX 231304
RWRWI

WISCONSIN REGIONAL WEATHER ROUNDUP
NATIONAL WEATHER SERVICE MILWAUKEE/SULLIVAN WI
ISSUED BY NATIONAL WEATHER SERVICE GREEN BAY WI
800 AM CDT WED JUL 23 2014

NOTE: "FAIR" INDICATES FEW OR NO CLOUDS BELOW 12,000 FEET WITH NO
SIGNIFICANT WEATHER AND/OR OBSTRUCTIONS TO VISIBILITY.

WIZ001-002-006>008-014>016-023>028-231400-
NORTHWEST WISCONSIN

CITY           SKY/WX    TMP DP  RH WIND       PRES   REMARKS
SUPERIOR ARPT  MOSUNNY   62  57  84 CALM      30.25R
ASHLAND        NOT AVBL
HAYWARD        SUNNY     57  56  96 CALM      30.25R
RICE LAKE      SUNNY     62  57  83 CALM      30.25S
EAU CLAIRE     SUNNY     66  61  84 CALM      30.23R
NEW RICHMOND   NOT AVBL
OSCEOLA        SUNNY     62  60  94 CALM      30.28S
SIREN          SUNNY     60  55  83 W3        30.25S
$$

WIZ003>005-009-010-017-018-231400-
NORTH CENTRAL WISCONSIN

CITY           SKY/WX    TMP DP  RH WIND       PRES   REMARKS
WOODRUFF       PTSUNNY   59  56  89 CALM      30.25R
RHINELANDER    SUNNY     59  52  77 E6        30.25R
EAGLE RIVER    CLOUDY    55  55 100 CALM      30.24R
PHILLIPS       PTSUNNY   59  56  91 CALM      30.23S
MEDFORD        SUNNY     59  58  96 CALM      30.24S
MERRILL        MOSUNNY   59  56  91 CALM      30.23S
$$

WIZ029-030-035-036-043>047-231400-
CENTRAL WISCONSIN

CITY           SKY/WX    TMP DP  RH WIND       PRES   REMARKS
WAUSAU         SUNNY     63  56  78 NE5       30.22R
MOSINEE        SUNNY     61  57  88 N9        30.24R
MARSHFIELD     SUNNY     65  55  70 NE3       30.24R
WISC RAPIDS    SUNNY     65  55  70 NE6       30.24R
STEVENS POINT  CLOUDY    60  54  80 NE7       30.23R
CAMP DOUGLAS   MOSUNNY   63  63 100 VRB5      30.23R
$$

WIZ011>013-019>022-031-037>040-048>050-231400-
NORTHEAST WISCONSIN

CITY           SKY/WX    TMP DP  RH WIND       PRES   REMARKS
ANTIGO         SUNNY     58  54  87 N5        30.24R
GREEN BAY      SUNNY     63  56  78 N10       30.21R
STURGEON BAY   MOSUNNY   61  52  72 N14       30.20R
MANITOWOC      SUNNY     64  57  78 N10       30.18R
APPLETON       MOSUNNY   61  55  82 N10       30.21R
CLINTONVILLE   SUNNY     61  54  77 NE6       30.22R
OSHKOSH        SUNNY     65  57  75 N10       30.20R
$$

WIZ032>034-041-042-053>061-231400-
SOUTHWEST WISCONSIN

CITY           SKY/WX    TMP DP  RH WIND       PRES   REMARKS
LA CROSSE      SUNNY     69  59  70 N7        30.21R
BOSCOBEL       SUNNY     68  59  73 VRB3      30.21R
SPARTA         SUNNY     63  58  84 CALM      30.23R
PRAIR DU CHIEN SUNNY     67  58  72 NE6       30.20R
$$

WIZ056-057-062-063-064-067-068-231400-
SOUTH CENTRAL WISCONSIN

CITY           SKY/WX    TMP DP  RH WIND       PRES   REMARKS
BARABOO/DELLS  SUNNY     64  57  79 NE3       30.21R
LONE ROCK      SUNNY     70  60  70 NE6       30.20R
MINERAL POINT  SUNNY     66  55  68 NE8       30.20R
MADISON        SUNNY     66  57  72 NE10      30.19R
MONROE         SUNNY     63  59  88 N13       30.17S
JANESVILLE     SUNNY     66  55  68 NE9       30.16R
WATERTOWN      SUNNY     64  58  80 N6        30.17S
$$

WIZ051-052-058>065-066-070>072-231400-
SOUTHEAST WISCONSIN

CITY           SKY/WX    TMP DP  RH WIND       PRES   REMARKS
MILWAUKEE      MOSUNNY   63  54  72 NE15G22   30.15S
WAUKESHA       SUNNY     63  55  77 N12       30.17F
MILWAUKEE/TIMM SUNNY     63  54  72 N12       30.17S
RACINE         SUNNY     63  55  75 N14G25    30.16R
BURLINGTON     SUNNY     63  55  77 N8        30.15F
KENOSHA        SUNNY     64  56  75 N12G24    30.15R
FOND DU LAC    PTSUNNY   64  57  78 N7        30.19R
SHEBOYGAN      SUNNY     64  57  78 N8        30.17S
WEST BEND      SUNNY     63  54  72 N8        30.18R
JUNEAU         SUNNY     63  56  76 N9        30.20S
$$

LSZ147-162-231400-
LAKE SUPERIOR

STATION/POSITION TIME  TEMP    WIND        PRES    WAVE
                       AIR SEA DIR/SP/G            HT/PER
                 (UTC) (F)     (DEG/KT/KT) (MB)    (FT/S)
W MID LAKE BUOY  1300   48 40  220/  2/  4 1024.2R   0
$$

LMZ867-665-643>646-231400-
LAKE MICHIGAN

STATION/POSITION TIME  TEMP    WIND        PRES    WAVE
                       AIR SEA DIR/SP/G            HT/PER
                 (UTC) (F)     (DEG/KT/KT) (MB)    (FT/S)
N MID LAKE BUOY  1200   55 53  340/ 14/ 17 1020.4R   2/ 4
SHEBOYGAN LKSHOR 1300   61     340/ 11/ 11 1021.5F
MILWAUKEE LKSHOR 1300   61      10/ 11/ 15   N/A
KENOSHA   LKSHOR 1200   60     360/ 19/ 23   N/A
S MID LAKE BUOY  1300   60 59  350/ 19/ 21 1019.5R   5/ 6
$$

TC  - TEMPERATURE IN CELSIUS
VSB - VISIBILITY IN STATUTE MILES
WCI - WIND CHILL INDEX
HX  - HEAT INDEX








USA.gov is the U.S. government's official web portal to all federal, state and local government web resources and services.